Location: *
(43.0167°S, 179.9000°E)
Time: 11:06:13
(UTC+00:00)

Sich 1 Rocket - Pass Details

Date: 12 August 2024
Orbit: 614 x 648 km, 82.5° (Epoch: 13 September)

Event Time Altitude Azimuth Distance (km) Brightness Sun altitude
Exits shadow 17:14:30 38° 300° (WNW) 953 4.1 -19.2°
Drops below altitude 10° 17:17:52 10° 343° (NNW) 1,983 6.0 -18.6°
Sets 17:20:09 0° 349° (N) 2,881 6.9 -18.1°
